KD0RIH Weather Reports


Display with metric or nautical units.
time (UTC)temp
F
wind
direction
speed
MPH
gust
MPH
rain 1hr
in
rain 24hr
in
rain mn
in
humidity
%
barometer
mb
20260906161944 89 106 4.0 4.0 0.00 0.00 0.00 65 1017.0
20260906161444 88 87 2.0 2.0 0.00 0.00 0.00 67 1016.8
20260906160943 87 287 0.0 1.0 0.00 0.00 0.00 68 1016.9
20260906160442 87 84 4.0 6.0 0.00 0.00 0.00 68 1017.0
20260906155941 89 174 5.0 6.0 0.00 0.00 0.00 67 1016.9
20260906155439 90 8 1.0 2.0 0.00 0.00 0.00 63 1016.8
20260906154936 88 309 1.0 2.0 0.00 0.00 0.00 68 1016.9
20260906154431 89 128 2.0 4.0 0.00 0.00 0.00 66 1016.9
20260906153929 87 147 3.0 4.0 0.00 0.00 0.00 70 1017.0
20260906153428 87 122 4.0 6.0 0.00 0.00 0.00 69 1017.1
20260906152924 87 108 5.0 7.0 0.00 0.00 0.00 71 1016.9
20260906152424 86 150 4.0 4.0 0.00 0.00 0.00 71 1016.8
20260906151923 85 165 5.0 6.0 0.00 0.00 0.00 73 1016.9
20260906151419 85 105 4.0 8.0 0.00 0.00 0.00 73 1017.0
20260906150914 85 173 4.0 4.0 0.00 0.00 0.00 75 1016.8
20260906150409 85 57 3.0 3.0 0.00 0.00 0.00 74 1017.0
20260906145909 84 38 6.0 7.0 0.00 0.00 0.00 75 1016.9
20260906145407 84 61 3.0 6.0 0.00 0.00 0.00 76 1016.9
20260906144902 84 176 1.0 2.0 0.00 0.00 0.00 76 1017.0
20260906144357 83 50 1.0 2.0 0.00 0.00 0.00 77 1016.9
20260906143852 83 166 4.0 6.0 0.00 0.00 0.00 77 1017.0
20260906143348 82 335 2.0 2.0 0.00 0.00 0.00 79 1016.9
20260906142844 82 246 5.0 6.0 0.00 0.00 0.00 80 1016.6
20260906142338 82 119 4.0 4.0 0.00 0.00 0.00 79 1016.9
20260906141838 82 123 3.0 3.0 0.00 0.00 0.00 80 1016.9
20260906141333 82 59 4.0 6.0 0.00 0.00 0.00 79 1016.9
20260906140832 81 202 2.0 3.0 0.00 0.00 0.00 82 1016.7
20260906140327 81 121 4.0 6.0 0.00 0.00 0.00 82 1016.7
20260906135824 81 160 8.0 10.0 0.00 0.00 0.00 81 1017.0
20260906135320 80 121 5.0 7.0 0.00 0.00 0.00 83 1016.7
20260906134815 80 179 4.0 4.0 0.00 0.00 0.00 84 1017.1
20260906134310 80 73 2.0 3.0 0.00 0.00 0.00 85 1016.9
20260906133806 80 327 1.0 2.0 0.00 0.00 0.00 85 1017.0
20260906133301 80 314 3.0 4.0 0.00 0.00 0.00 86 1017.1
20260906132756 79 190 3.0 4.0 0.00 0.00 0.00 86 1016.9
20260906132252 79 337 2.0 3.0 0.00 0.00 0.00 87 1016.8
20260906131748 78 67 2.0 3.0 0.00 0.00 0.00 88 1016.9
20260906131247 78 200 3.0 4.0 0.00 0.00 0.00 89 1016.5
20260906130743 78 133 4.0 4.0 0.00 0.00 0.00 90 1016.5
20260906130238 78 300 2.0 2.0 0.00 0.00 0.00 91 1016.5
20260906125736 77 343 2.0 2.0 0.00 0.00 0.00 91 1016.4
20260906125235 77 301 0.0 0.0 0.00 0.00 0.00 92 1016.5
20260906124730 77 101 4.0 4.0 0.00 0.00 0.00 92 1016.6
20260906124226 77 65 2.0 3.0 0.00 0.00 0.00 92 1016.5
20260906123724 77 2 0.0 1.0 0.00 0.00 0.00 93 1016.6
20260906123220 77 340 1.0 2.0 0.00 0.00 0.00 93 1016.5
20260906122719 76 296 0.0 1.0 0.00 0.00 0.00 93 1016.3
20260906122214 76 243 1.0 2.0 0.00 0.00 0.00 93 1016.2
20260906121711 76 133 1.0 1.0 0.00 0.00 0.00 93 1016.2
20260906121207 76 357 1.0 1.0 0.00 0.00 0.00 93 1016.0
20260906120702 76 341 0.0 0.0 0.00 0.00 0.00 93 1016.0
20260906120200 76 271 0.0 0.0 0.00 0.00 0.00 93 1015.8
20260906115700 76 116 1.0 2.0 0.00 0.00 0.00 93 1015.9
20260906115155 76 13 0.0 0.0 0.00 0.00 0.00 93 1015.7
20260906114654 76 298 0.0 0.0 0.00 0.00 0.00 93 1015.9
20260906114150 76 314 0.0 0.0 0.00 0.00 0.00 93 1015.7
20260906113649 76 356 0.0 0.0 0.00 0.00 0.00 93 1015.5
20260906113149 77 2 1.0 2.0 0.00 0.00 0.00 93 1015.8
20260906112649 77 318 0.0 0.0 0.00 0.00 0.00 93 1015.7
20260906112146 77 281 0.0 1.0 0.00 0.00 0.00 92 1015.6
20260906111645 77 80 0.0 0.0 0.00 0.00 0.00 92 1015.6
20260906111140 77 49 0.0 0.0 0.00 0.00 0.00 92 1015.5
20260906110635 77 47 0.0 1.0 0.00 0.00 0.00 92 1015.6
20260906110130 77 321 0.0 0.0 0.00 0.00 0.00 92 1015.6
20260906105624 77 128 0.0 1.0 0.00 0.00 0.00 92 1015.4
20260906105121 77 322 0.0 0.0 0.00 0.00 0.00 91 1015.5
20260906104620 77 329 0.0 0.0 0.00 0.00 0.00 92 1015.5
20260906104119 77 319 0.0 0.0 0.00 0.00 0.00 91 1015.4
20260906103618 77 301 0.0 0.0 0.00 0.00 0.00 91 1015.4
20260906103114 77 3 0.0 0.0 0.00 0.00 0.00 91 1015.5
20260906102614 77 322 0.0 0.0 0.00 0.00 0.00 91 1015.6
20260906102109 77 318 0.0 0.0 0.00 0.00 0.00 90 1015.5
20260906101608 77 336 0.0 0.0 0.00 0.00 0.00 90 1015.5
20260906101108 77 326 0.0 0.0 0.00 0.00 0.00 90 1015.4
20260906100605 77 323 0.0 0.0 0.00 0.00 0.00 89 1015.4
20260906100104 77 332 0.0 0.0 0.00 0.00 0.00 89 1015.4
20260906095604 78 318 0.0 0.0 0.00 0.00 0.00 88 1015.2
20260906095100 78 312 0.0 0.0 0.00 0.00 0.00 88 1015.2
20260906094558 78 324 0.0 0.0 0.00 0.00 0.00 87 1015.2
20260906094054 78 316 0.0 0.0 0.00 0.00 0.00 87 1015.3
20260906093550 78 351 0.0 0.0 0.00 0.00 0.00 88 1015.2
20260906093045 78 317 0.0 0.0 0.00 0.00 0.00 88 1015.2
20260906092540 78 321 0.0 0.0 0.00 0.00 0.00 87 1015.2
20260906092035 78 75 1.0 2.0 0.00 0.00 0.00 87 1015.1
20260906091531 78 319 0.0 0.0 0.00 0.00 0.00 86 1015.0
20260906091028 78 318 0.0 0.0 0.00 0.00 0.00 86 1014.9
20260906090528 78 25 1.0 1.0 0.00 0.00 0.00 86 1014.8
20260906090023 78 323 0.0 0.0 0.00 0.00 0.00 85 1014.9
20260906085521 78 12 0.0 1.0 0.00 0.00 0.00 85 1015.0
20260906085022 78 315 0.0 0.0 0.00 0.00 0.00 85 1014.9
20260906084522 78 320 0.0 0.0 0.00 0.00 0.00 85 1014.9
20260906084020 79 45 2.0 2.0 0.00 0.00 0.00 84 1014.7
20260906083516 79 326 1.0 2.0 0.00 0.00 0.00 84 1014.8
20260906083016 79 327 0.0 0.0 0.00 0.00 0.00 83 1014.7
20260906082511 79 319 0.0 0.0 0.00 0.00 0.00 83 1014.6
20260906082007 79 340 1.0 2.0 0.00 0.00 0.00 83 1014.5
20260906081502 79 312 0.0 0.0 0.00 0.00 0.00 83 1014.6
20260906080958 79 333 0.0 0.0 0.00 0.00 0.00 82 1014.6
20260906080454 79 311 0.0 0.0 0.00 0.00 0.00 82 1014.5
20260906075949 79 324 1.0 1.0 0.00 0.00 0.00 82 1014.5
20260906075444 79 306 0.0 0.0 0.00 0.00 0.00 82 1014.4
20260906074939 79 313 0.0 0.0 0.00 0.00 0.00 81 1014.3
20260906074439 79 307 0.0 0.0 0.00 0.00 0.00 81 1014.5
20260906073937 79 351 2.0 2.0 0.00 0.00 0.00 81 1014.3
20260906073432 79 318 0.0 0.0 0.00 0.00 0.00 80 1014.6
20260906072928 79 310 0.0 0.0 0.00 0.00 0.00 80 1014.3
20260906072424 79 324 0.0 0.0 0.00 0.00 0.00 80 1014.4
20260906071920 79 310 0.0 0.0 0.00 0.00 0.00 80 1014.5
20260906071415 79 319 0.0 0.0 0.00 0.00 0.00 80 1014.6
20260906070911 79 310 0.0 0.0 0.00 0.00 0.00 79 1014.6
20260906070407 79 333 0.0 0.0 0.00 0.00 0.00 79 1014.8
20260906065902 80 311 0.0 0.0 0.00 0.00 0.00 78 1014.9
20260906065356 80 318 0.0 0.0 0.00 0.00 0.00 78 1014.9
20260906064852 80 315 0.0 0.0 0.00 0.00 0.00 77 1014.8
20260906064349 80 329 0.0 0.0 0.00 0.00 0.00 77 1014.9
20260906063848 80 335 0.0 0.0 0.00 0.00 0.00 77 1015.0
20260906063344 80 322 0.0 0.0 0.00 0.00 0.00 76 1015.1
20260906062838 80 329 1.0 1.0 0.00 0.00 0.00 76 1015.0
20260906062338 80 313 0.0 0.0 0.00 0.00 0.00 76 1014.9
20260906061833 80 315 0.0 0.0 0.00 0.00 0.00 76 1014.9
20260906061330 80 340 0.0 0.0 0.00 0.00 0.00 76 1015.0
20260906060824 80 312 0.0 0.0 0.00 0.00 0.00 74 1015.0
20260906060322 80 316 0.0 0.0 0.00 0.00 0.00 74 1015.0
20260906055818 80 311 0.0 0.0 0.00 0.00 0.00 74 1015.0
20260906055313 80 314 0.0 0.0 0.00 0.00 0.00 73 1015.2
20260906054808 81 311 0.0 0.0 0.00 0.00 0.00 72 1015.0
20260906054303 81 314 0.0 0.0 0.00 0.00 0.00 71 1015.2
20260906053800 81 312 0.0 0.0 0.00 0.00 0.00 72 1014.9
20260906053255 81 306 0.0 0.0 0.00 0.00 0.00 71 1015.1
20260906052750 81 312 0.0 0.0 0.00 0.00 0.00 71 1015.2
20260906052246 81 331 0.0 0.0 0.00 0.00 0.00 71 1015.0
20260906051743 81 313 0.0 0.0 0.00 0.00 0.00 70 1015.0
20260906051243 81 311 0.0 0.0 0.00 0.00 0.00 70 1015.1
20260906050738 82 322 0.0 0.0 0.00 0.00 0.00 70 1014.9
20260906050233 82 313 0.0 1.0 0.00 0.00 0.00 69 1015.0
20260906045732 82 321 0.0 1.0 0.00 0.00 0.00 69 1014.9
20260906045227 82 315 0.0 0.0 0.00 0.00 0.00 68 1014.8
20260906044722 82 315 0.0 0.0 0.00 0.00 0.00 68 1014.9
20260906044218 82 317 0.0 0.0 0.00 0.00 0.00 68 1014.8
20260906043714 82 316 0.0 0.0 0.00 0.00 0.00 67 1014.7
20260906043210 82 315 0.0 0.0 0.00 0.00 0.00 67 1014.8
20260906042709 83 311 0.0 0.0 0.00 0.00 0.00 64 1014.6
20260906042203 83 320 0.0 0.0 0.00 0.00 0.00 65 1014.7
20260906041659 83 315 0.0 0.0 0.00 0.00 0.00 66 1014.6
20260906041154 83 316 0.0 0.0 0.00 0.00 0.00 65 1014.7
20260906040649 84 319 0.0 1.0 0.00 0.00 0.00 65 1014.5
20260906040144 84 319 0.0 0.0 0.00 0.00 0.00 64 1014.5
20260906035644 84 327 0.0 0.0 0.00 0.00 0.00 64 1014.6
20260906035140 84 314 0.0 0.0 0.00 0.00 0.00 64 1014.5
20260906034636 84 315 0.0 0.0 0.00 0.00 0.00 64 1014.4
20260906034130 84 323 0.0 0.0 0.00 0.00 0.00 64 1014.4
20260906033626 84 316 0.0 0.0 0.00 0.00 0.00 63 1014.3
20260906033126 84 316 0.0 0.0 0.00 0.00 0.00 62 1014.3
20260906032623 84 316 0.0 0.0 0.00 0.00 0.00 63 1014.1
20260906032122 84 316 0.0 0.0 0.00 0.00 0.00 61 1014.4
20260906031618 84 316 0.0 0.0 0.00 0.00 0.00 62 1014.1
20260906031113 85 315 0.0 0.0 0.00 0.00 0.00 62 1014.0
20260906030612 85 315 0.0 0.0 0.00 0.00 0.00 61 1013.9
20260906030108 85 315 0.0 0.0 0.00 0.00 0.00 61 1013.9
20260906025608 86 316 0.0 0.0 0.00 0.00 0.00 60 1013.9
20260906025106 86 313 0.0 0.0 0.00 0.00 0.00 59 1013.8
20260906024601 86 312 0.0 0.0 0.00 0.00 0.00 59 1013.9
20260906024101 86 316 0.0 0.0 0.00 0.00 0.00 58 1013.8
20260906023557 86 314 0.0 0.0 0.00 0.00 0.00 58 1013.9
20260906023051 86 315 0.0 0.0 0.00 0.00 0.00 58 1013.9
20260906022547 86 317 0.0 0.0 0.00 0.00 0.00 59 1013.6
20260906022042 86 313 0.0 0.0 0.00 0.00 0.00 59 1013.4
20260906021538 87 313 0.0 0.0 0.00 0.00 0.00 58 1013.5
20260906021037 87 338 0.0 0.0 0.00 0.00 0.00 59 1013.2
20260906020537 87 329 0.0 0.0 0.00 0.00 0.00 58 1013.2
20260906020036 87 317 0.0 0.0 0.00 0.00 0.00 58 1013.1
20260906015536 87 307 0.0 0.0 0.00 0.00 0.00 58 1013.2
20260906015035 88 310 0.0 0.0 0.00 0.00 0.00 57 1012.9
20260906014530 88 310 0.0 0.0 0.00 0.00 0.00 57 1012.9
20260906014026 88 338 0.0 0.0 0.00 0.00 0.00 57 1013.0
20260906013521 89 312 0.0 0.0 0.00 0.00 0.00 56 1012.8
20260906013017 89 312 0.0 0.0 0.00 0.00 0.00 56 1012.9
20260906012512 89 317 0.0 0.0 0.00 0.00 0.00 56 1013.0
20260906012011 89 317 0.0 0.0 0.00 0.00 0.00 56 1012.9
20260906011508 90 308 0.0 0.0 0.00 0.00 0.00 55 1012.8
20260906011008 90 319 0.0 0.0 0.00 0.00 0.00 54 1012.8
20260906010503 91 338 0.0 1.0 0.00 0.00 0.00 54 1012.8
20260906005959 91 311 0.0 0.0 0.00 0.00 0.00 54 1012.7
20260906005458 91 308 0.0 0.0 0.00 0.00 0.00 53 1013.0
20260906004957 91 328 0.0 0.0 0.00 0.00 0.00 53 1012.7
20260906004457 92 313 0.0 0.0 0.00 0.00 0.00 52 1012.8
20260906003952 92 308 0.0 0.0 0.00 0.00 0.00 52 1012.7
20260906003447 93 313 0.0 0.0 0.00 0.00 0.00 51 1012.7
20260906002942 93 308 0.0 0.0 0.00 0.00 0.00 50 1012.4
20260906002442 94 325 0.0 0.0 0.00 0.00 0.00 49 1012.8
20260906001938 95 317 0.0 0.0 0.00 0.00 0.00 48 1012.8
20260906001434 95 304 0.0 0.0 0.00 0.00 0.00 48 1012.6
20260906000928 95 314 0.0 0.0 0.00 0.00 0.00 48 1012.7
20260906000425 96 313 0.0 0.0 0.00 0.00 0.00 47 1012.6
20260905235919 96 344 2.0 3.0 0.00 0.00 0.00 46 1012.8
20260905235418 96 307 0.0 1.0 0.00 0.00 0.00 46 1012.7
20260905234913 97 260 1.0 3.0 0.00 0.00 0.00 45 1012.7
20260905234409 99 317 1.0 1.0 0.00 0.00 0.00 43 1012.6
20260905233903 98 325 0.0 1.0 0.00 0.00 0.00 38 1012.5
20260905233358 98 326 0.0 0.0 0.00 0.00 0.00 38 1012.7
20260905232858 99 354 1.0 2.0 0.00 0.00 0.00 37 1012.5
20260905232354 99 306 0.0 0.0 0.00 0.00 0.00 37 1012.4
20260905231849 99 123 3.0 3.0 0.00 0.00 0.00 37 1012.5
20260905231350 100 287 2.0 2.0 0.00 0.00 0.00 36 1012.5
20260905230847 100 296 1.0 1.0 0.00 0.00 0.00 36 1012.3
20260905230344 101 283 2.0 2.0 0.00 0.00 0.00 35 1012.4
20260905225843 101 286 2.0 2.0 0.00 0.00 0.00 35 1012.3
20260905225338 101 282 0.0 1.0 0.00 0.00 0.00 35 1012.3
20260905224833 103 296 1.0 2.0 0.00 0.00 0.00 34 1012.1
20260905224329 104 305 0.0 1.0 0.00 0.00 0.00 34 1012.1
20260905223824 104 308 0.0 0.0 0.00 0.00 0.00 33 1012.1
20260905223322 104 300 1.0 1.0 0.00 0.00 0.00 33 1012.1
20260905222817 103 47 1.0 1.0 0.00 0.00 0.00 34 1012.2
20260905222315 101 309 1.0 2.0 0.00 0.00 0.00 35 1012.1
20260905221811 100 312 0.0 0.0 0.00 0.00 0.00 37 1012.1
20260905221308 100 156 2.0 2.0 0.00 0.00 0.00 36 1012.2
20260905220803 101 240 3.0 4.0 0.00 0.00 0.00 36 1012.2
20260905220300 102 239 1.0 3.0 0.00 0.00 0.00 36 1012.3
20260905215759 100 286 0.0 0.0 0.00 0.00 0.00 37 1012.2
20260905215255 101 276 1.0 2.0 0.00 0.00 0.00 35 1012.1
20260905214750 100 289 1.0 1.0 0.00 0.00 0.00 37 1012.3
20260905214246 101 259 4.0 4.0 0.00 0.00 0.00 36 1012.3
20260905213741 100 255 3.0 3.0 0.00 0.00 0.00 38 1012.5
20260905213237 102 275 3.0 4.0 0.00 0.00 0.00 36 1012.4
20260905212732 102 220 2.0 3.0 0.00 0.00 0.00 36 1012.4
20260905212231 105 192 2.0 2.0 0.00 0.00 0.00 34 1012.4
20260905211731 105 310 0.0 0.0 0.00 0.00 0.00 33 1012.6
20260905211226 102 280 2.0 3.0 0.00 0.00 0.00 35 1012.7
20260905210723 104 199 3.0 3.0 0.00 0.00 0.00 34 1012.8
20260905210223 108 300 0.0 0.0 0.00 0.00 0.00 30 1012.9
20260905205721 109 327 0.0 0.0 0.00 0.00 0.00 31 1013.2
20260905205217 110 359 2.0 2.0 0.00 0.00 0.00 29 1013.1
20260905204716 106 308 0.0 1.0 0.00 0.00 0.00 33 1013.2
20260905204212 107 303 1.0 1.0 0.00 0.00 0.00 31 1013.4
20260905203711 107 354 1.0 3.0 0.00 0.00 0.00 31 1013.4
20260905203208 107 316 0.0 0.0 0.00 0.00 0.00 32 1013.5
20260905202703 106 316 2.0 2.0 0.00 0.00 0.00 32 1013.3
20260905202158 106 311 0.0 0.0 0.00 0.00 0.00 33 1013.9
20260905201653 103 313 0.0 1.0 0.00 0.00 0.00 34 1013.6
20260905201153 101 329 1.0 1.0 0.00 0.00 0.00 36 1013.8
20260905200648 109 159 7.0 10.0 0.00 0.00 0.00 30 1013.6
20260905200144 109 311 0.0 0.0 0.00 0.00 0.00 30 1013.9
20260905195642 107 289 0.0 1.0 0.00 0.00 0.00 30 1013.8
20260905195137 103 314 4.0 6.0 0.00 0.00 0.00 34 1013.8
20260905194632 105 224 7.0 8.0 0.00 0.00 0.00 32 1013.8
20260905194131 103 258 5.0 6.0 0.00 0.00 0.00 33 1013.6
20260905193626 106 246 4.0 4.0 0.00 0.00 0.00 34 1013.8
20260905193121 112 294 1.0 1.0 0.00 0.00 0.00 27 1014.1
20260905192617 111 305 0.0 0.0 0.00 0.00 0.00 28 1014.0
20260905192113 108 314 1.0 1.0 0.00 0.00 0.00 30 1013.9
20260905191612 104 302 0.0 0.0 0.00 0.00 0.00 35 1014.1
20260905191110 105 171 6.0 7.0 0.00 0.00 0.00 34 1014.2
20260905190609 105 305 2.0 3.0 0.00 0.00 0.00 33 1014.3
20260905185602 103 303 0.0 1.0 0.00 0.00 0.00 35 1014.4
20260905185102 100 304 1.0 1.0 0.00 0.00 0.00 38 1014.5
20260905184556 101 271 4.0 4.0 0.00 0.00 0.00 37 1014.6
20260905184056 100 303 0.0 1.0 0.00 0.00 0.00 37 1014.6
20260905183555 99 252 2.0 2.0 0.00 0.00 0.00 39 1014.7
20260905183051 100 229 4.0 4.0 0.00 0.00 0.00 39 1014.8
20260905182550 100 262 2.0 4.0 0.00 0.00 0.00 39 1014.8
20260905182044 101 285 2.0 3.0 0.00 0.00 0.00 39 1014.6
20260905181539 101 300 1.0 1.0 0.00 0.00 0.00 38 1014.7
20260905181038 103 251 1.0 2.0 0.00 0.00 0.00 36 1014.9
20260905180533 106 284 4.0 6.0 0.00 0.00 0.00 33 1014.8
20260905180029 105 303 0.0 1.0 0.00 0.00 0.00 33 1014.9
20260905175528 104 306 0.0 0.0 0.00 0.00 0.00 36 1014.7
20260905175024 101 308 0.0 0.0 0.00 0.00 0.00 37 1014.9
20260905174519 102 286 3.0 4.0 0.00 0.00 0.00 37 1015.0
20260905174015 100 314 1.0 1.0 0.00 0.00 0.00 38 1014.9
20260905173511 99 236 3.0 3.0 0.00 0.00 0.00 37 1015.1
20260905173006 100 250 2.0 3.0 0.00 0.00 0.00 38 1015.3
20260905172504 102 251 3.0 3.0 0.00 0.00 0.00 36 1015.4
20260905172000 100 296 0.0 1.0 0.00 0.00 0.00 39 1015.4
20260905171456 100 308 2.0 2.0 0.00 0.00 0.00 38 1015.3
20260905170952 100 306 1.0 2.0 0.00 0.00 0.00 38 1015.4
20260905170449 103 279 2.0 2.0 0.00 0.00 0.00 37 1015.6
20260905165947 102 307 0.0 0.0 0.00 0.00 0.00 39 1015.4
20260905165442 100 299 2.0 4.0 0.00 0.00 0.00 38 1015.5
20260905164938 100 349 0.0 0.0 0.00 0.00 0.00 40 1015.6
20260905164432 101 296 0.0 0.0 0.00 0.00 0.00 37 1015.7
20260905163927 98 282 0.0 1.0 0.00 0.00 0.00 40 1015.7
20260905163424 98 287 2.0 3.0 0.00 0.00 0.00 40 1015.6
20260905162920 97 307 0.0 0.0 0.00 0.00 0.00 41 1015.8
20260905162420 97 263 1.0 1.0 0.00 0.00 0.00 42 1016.0